Total_Precipitation_Accumulation
2.38 2.46 2.41 2.50 2.70 2.66 2.77 3.05 3.17 3.05 2.94 3.01 3.09 3.07 3.04 2.90 2.62 2.34 2.19 2.17 2.18 2.33 2.56 2.45 2.74 2.87 2.86 2.80 2.84 2.91 2.80 2.61 2.85 2.66 2.06 1.52 1.16 1.09 1.01 1.05 1.15 1.20 1.40
2.46 2.65 2.70 2.63 2.71 2.74 2.85 3.11 3.27 3.31 3.23 3.39 3.56 3.48 3.38 3.09 2.86 2.52 2.33 2.27 2.40 2.44 2.49 2.78 2.95 3.03 2.99 2.85 2.85 2.91 2.71 2.37 2.78 2.79 2.49 1.85 1.39 1.10 0.89 1.05 1.06 1.16 1.59
1.87 2.43 2.78 2.89 2.64 2.58 2.74 2.91 3.11 3.27 3.35 3.45 3.62 3.48 3.49 3.28 3.02 2.74 2.54 2.36 2.39 2.39 2.52 2.74 2.97 2.95 2.84 2.72 2.75 2.84 2.75 2.47 2.52 2.75 2.89 2.37 1.81 1.47 1.05 1.01 1.13 1.33 1.56
1.68 2.13 2.40 2.35 2.35 2.36 2.37 2.57 2.79 3.00 3.18 3.36 3.42 3.38 3.28 3.11 2.97 2.80 2.42 2.27 2.17 2.20 2.30 2.34 2.52 2.69 2.65 2.57 2.47 2.60 2.68 2.60 2.40 2.55 2.67 2.55 2.30 2.03 1.43 1.10 1.10 1.35 1.50
1.42 1.69 1.86 1.86 1.87 1.91 2.14 2.49 2.70 2.86 2.90 2.92 2.92 3.01 2.91 2.86 2.84 2.67 2.43 2.32 2.29 2.23 2.12 2.18 2.39 2.49 2.51 2.37 2.26 2.36 2.46 2.42 2.32 2.42 2.45 2.47 2.43 2.25 1.99 1.51 1.35 1.30 1.25
1.26 1.49 1.69 1.79 1.77 1.90 2.19 2.45 2.61 2.70 2.67 2.62 2.65 2.72 2.67 2.65 2.59 2.42 2.35 2.19 2.10 1.98 1.91 1.98 2.17 2.27 2.29 2.27 2.25 2.20 2.18 2.21 2.17 2.20 2.33 2.46 2.36 2.28 2.25 1.81 1.57 1.45 1.08
1.36 1.51 1.59 1.63 1.71 1.80 1.93 2.12 2.29 2.38 2.29 2.21 2.28 2.30 2.31 2.25 2.18 2.13 2.08 1.98 1.85 1.68 1.62 1.63 1.68 1.74 1.84 1.99 2.14 2.09 2.02 2.03 2.03 2.00 2.07 2.22 2.21 2.28 2.32 2.09 1.76 1.60 1.24
1.62 1.73 1.70 1.65 1.62 1.64 1.65 1.66 1.78 1.84 1.81 1.83 1.89 1.86 1.84 1.80 1.75 1.80 1.77 1.71 1.60 1.51 1.46 1.40 1.33 1.31 1.37 1.53 1.82 1.93 1.95 1.99 1.94 1.82 1.89 1.92 1.86 1.94 2.04 2.11 2.03 1.73 1.50
1.19 1.44 1.46 1.39 1.35 1.32 1.27 1.25 1.24 1.20 1.20 1.24 1.27 1.30 1.32 1.35 1.34 1.36 1.37 1.34 1.29 1.20 1.15 1.13 1.13 1.15 1.13 1.17 1.34 1.55 1.70 1.82 1.81 1.79 1.78 1.74 1.67 1.66 1.71 1.90 2.00 1.91 1.71
0.92 0.96 1.01 1.03 1.05 1.07 1.03 0.97 0.92 0.88 0.87 0.87 0.88 0.86 0.86 0.88 0.90 0.90 0.88 0.92 0.93 0.92 0.92 0.94 0.98 1.03 1.05 1.05 1.17 1.30 1.46 1.58 1.61 1.60 1.59 1.63 1.57 1.58 1.54 1.58 1.78 1.92 1.97
0.68 0.65 0.67 0.70 0.83 0.90 0.87 0.78 0.77 0.74 0.71 0.69 0.71 0.66 0.63 0.63 0.64 0.64 0.67 0.72 0.75 0.75 0.77 0.82 0.84 0.83 0.82 0.85 0.91 0.98 1.09 1.21 1.29 1.29 1.33 1.39 1.42 1.53 1.42 1.44 1.57 1.76 1.97
0.48 0.48 0.49 0.52 0.57 0.61 0.62 0.59 0.58 0.62 0.59 0.56 0.55 0.54 0.52 0.50 0.51 0.53 0.58 0.64 0.71 0.74 0.81 0.87 0.90 0.84 0.81 0.79 0.78 0.79 0.89 1.05 1.13 1.24 1.35 1.38 1.46 1.56 1.44 1.45 1.56 1.77 2.00
0.43 0.42 0.42 0.44 0.47 0.50 0.54 0.52 0.54 0.56 0.52 0.48 0.49 0.53 0.53 0.53 0.53 0.53 0.57 0.60 0.61 0.65 0.74 0.86 0.96 0.93 0.89 0.85 0.82 0.79 0.79 0.86 0.97 1.10 1.28 1.40 1.54 1.65 1.63 1.59 1.68 1.86 2.08
0.44 0.45 0.42 0.41 0.47 0.57 0.59 0.57 0.60 0.57 0.52 0.48 0.47 0.48 0.46 0.45 0.47 0.49 0.52 0.54 0.55 0.59 0.63 0.67 0.78 0.83 0.86 0.88 0.87 0.86 0.86 0.86 0.86 0.86 0.86 0.93 1.07 1.21 1.41 1.52 1.62 1.73 1.97
0.35 0.36 0.37 0.39 0.45 0.52 0.57 0.56 0.60 0.57 0.56 0.57 0.56 0.52 0.51 0.56 0.50 0.49 0.56 0.54 0.50 0.50 0.55 0.55 0.60 0.68 0.71 0.74 0.77 0.77 0.76 0.80 0.86 0.83 0.75 0.69 0.68 0.73 0.84 0.93 1.19 1.42 1.62
0.30 0.30 0.36 0.41 0.41 0.44 0.49 0.52 0.52 0.54 0.57 0.63 0.65 0.60 0.58 0.56 0.54 0.49 0.49 0.48 0.47 0.47 0.51 0.54 0.55 0.59 0.57 0.62 0.66 0.66 0.64 0.62 0.66 0.71 0.72 0.68 0.63 0.54 0.53 0.60 0.75 0.94 1.19
0.24 0.25 0.30 0.34 0.33 0.37 0.49 0.54 0.50 0.49 0.56 0.65 0.72 0.78 0.71 0.64 0.57 0.49 0.48 0.49 0.53 0.56 0.60 0.60 0.58 0.54 0.55 0.53 0.55 0.62 0.62 0.61 0.57 0.57 0.60 0.54 0.51 0.51 0.45 0.49 0.51 0.56 0.63
0.21 0.23 0.25 0.22 0.24 0.25 0.33 0.45 0.55 0.54 0.61 0.70 0.74 0.81 0.75 0.66 0.57 0.52 0.53 0.58 0.60 0.59 0.62 0.66 0.69 0.67 0.57 0.47 0.43 0.49 0.56 0.63 0.61 0.58 0.53 0.53 0.52 0.52 0.51 0.49 0.50 0.47 0.44
0.18 0.21 0.21 0.20 0.24 0.24 0.27 0.35 0.46 0.55 0.66 0.74 0.79 0.79 0.77 0.71 0.64 0.60 0.62 0.63 0.63 0.59 0.54 0.54 0.61 0.70 0.70 0.55 0.44 0.41 0.44 0.50 0.54 0.57 0.56 0.53 0.53 0.54 0.47 0.49 0.51 0.49 0.46
0.26 0.30 0.32 0.35 0.37 0.38 0.37 0.42 0.47 0.55 0.64 0.70 0.74 0.78 0.85 0.87 0.83 0.76 0.74 0.71 0.71 0.67 0.62 0.57 0.61 0.63 0.68 0.60 0.47 0.43 0.43 0.48 0.53 0.61 0.62 0.52 0.46 0.47 0.45 0.47 0.52 0.51 0.47
0.29 0.36 0.43 0.55 0.63 0.69 0.68 0.66 0.64 0.67 0.70 0.69 0.73 0.79 0.86 0.91 0.91 0.92 0.93 0.90 0.84 0.83 0.81 0.72 0.69 0.71 0.70 0.60 0.42 0.38 0.42 0.51 0.57 0.59 0.61 0.57 0.43 0.37 0.41 0.46 0.47 0.45 0.46
0.22 0.29 0.44 0.55 0.65 0.79 0.93 1.00 0.97 0.87 0.84 0.80 0.84 0.87 0.95 0.93 0.91 1.04 1.06 1.06 1.06 1.03 0.96 0.91 0.87 0.84 0.80 0.64 0.51 0.42 0.45 0.52 0.60 0.62 0.62 0.61 0.45 0.36 0.37 0.43 0.47 0.42 0.40
0.22 0.28 0.38 0.53 0.60 0.66 0.83 1.09 1.11 1.06 1.05 1.04 1.06 1.04 1.06 1.16 1.21 1.24 1.19 1.18 1.18 1.14 1.07 1.05 1.02 0.97 0.96 0.86 0.60 0.50 0.49 0.53 0.57 0.62 0.60 0.56 0.48 0.42 0.41 0.42 0.44 0.41 0.38
0.26 0.30 0.41 0.52 0.61 0.69 0.82 1.00 1.02 1.00 1.12 1.25 1.26 1.21 1.22 1.27 1.34 1.43 1.34 1.31 1.28 1.23 1.21 1.22 1.20 1.19 1.17 1.11 0.88 0.69 0.63 0.63 0.63 0.64 0.59 0.52 0.51 0.53 0.52 0.51 0.46 0.44 0.49
0.36 0.40 0.47 0.54 0.63 0.77 0.86 0.91 0.95 1.03 1.19 1.25 1.23 1.25 1.31 1.40 1.47 1.48 1.40 1.28 1.25 1.17 1.18 1.20 1.20 1.21 1.18 1.07 0.90 0.80 0.79 0.81 0.80 0.77 0.73 0.69 0.67 0.68 0.71 0.71 0.68 0.66 0.68
0.33 0.36 0.44 0.49 0.53 0.62 0.72 0.77 0.87 1.04 1.22 1.25 1.24 1.22 1.22 1.30 1.35 1.37 1.32 1.16 1.04 0.92 0.86 0.90 0.91 0.92 0.90 0.88 0.81 0.72 0.72 0.75 0.76 0.77 0.82 0.83 0.83 0.85 0.88 0.89 0.87 0.81 0.81